Hourly Data Report for October 03, 2017

All times are specified in Local Standard Time (LST). Add 1 hour to adjust for Daylight Saving Time where and when it is observed.

FORT CHIPEWYAN
ALBERTA

58°46'02.000" N
111°07'02.000" W
238.00 m
3072655
71305
YPY

Related Data

No related data is available for this station

Download Data

Hourly Data (October 2017)
Hourly Data Report for October 3, 2017
Temp Definition
°C
Dew Point Temp Definition
°C
Rel Hum Definition
%
Wind Dir Definition
10's deg

Wind Spd Definition
km/h
Visibility Definition
km
Stn Press Definition
kPa
Hmdx Definition


Wind Chill Definition


Weather Definition


TIME
00:00 Legend Double Dagger -1.2 -1.6 97 LegendMM 4 16.1 99.67   -3 LegendNANA
01:00 Legend Double Dagger -0.5 -1.5 93 24 5 16.1 99.65   -2 LegendNANA
02:00 Legend Double Dagger -0.6 -1.2 96 25 8 16.1 99.63   -3 LegendNANA
03:00 Legend Double Dagger 0.2 -1.3 90 LegendMM 4 16.1 99.53     LegendNANA
04:00 Legend Double Dagger 0.0 -2.2 85 LegendMM 4 16.1 99.46   -1 LegendNANA
05:00 Legend Double Dagger 0.8 -2.4 79 21 9 16.1 99.38     LegendNANA
06:00 Legend Double Dagger 1.4 -2.3 76 19 13 16.1 99.31     LegendNANA
07:00 Legend Double Dagger 1.3 -2.5 76 20 13 16.1 99.15     LegendNANA
08:00 Legend Double Dagger 2.3 -2.3 72 20 11 16.1 99.00     LegendNANA
09:00 Legend Double Dagger 3.9 -2.1 65 20 13 16.1 98.90     LegendNANA
10:00 Legend Double Dagger 4.7 -2.1 61 20 11 16.1 98.79     LegendNANA
11:00 Legend Double Dagger 7.3 -1.8 53 22 17 16.1 98.72     LegendNANA
12:00 Legend Double Dagger 8.6 -2.0 47 22 18 16.1 98.56     LegendNANA
13:00 Legend Double Dagger 9.4 -2.0 45 25 22 16.1 98.53     LegendNANA
14:00 Legend Double Dagger 10.2 -3.2 39 25 26 16.1 98.46     LegendNANA
15:00 Legend Double Dagger 10.9 -3.6 36 26 37 16.1 98.46     LegendNANA
16:00 Legend Double Dagger 10.5 -2.3 41 26 26 16.1 98.45     LegendNANA
17:00 Legend Double Dagger 9.4 -0.9 49 26 15 16.1 98.48     LegendNANA
18:00 Legend Double Dagger 7.7 -0.5 56 27 15 16.1 98.52     LegendNANA
19:00 Legend Double Dagger 7.7 -0.1 58 27 17 16.1 98.54     LegendNANA
20:00 Legend Double Dagger 7.8 -0.9 54 30 8 16.1 98.67     LegendNANA
21:00 Legend Double Dagger 8.5 2.2 64 33 15 16.1 98.74     LegendNANA
22:00 Legend Double Dagger 7.2 2.2 70 34 22 16.1 98.85     LegendNANA
23:00 Legend Double Dagger 6.3 2.1 75 34 9 16.1 98.95     LegendNANA

Notes on Data Quality.

Legend

  • E = Estimated
  • M = Missing
  • NA = Not Available
  • ‡ = Partner data that is not subject to review by the National Climate Archives
Date modified: